Content
SEND FEEDBACK

Daily
Averages
Monthly
Summary
United States of America

COLUMBIA, VIRGINIA


Home > North America > United States > Virginia
Elevation: 293 feet     Latitude: 37 42N     Longitude: 078 18W

WEATHER
 
SELECT A DAY
Number of Records: 88,293;   Date Range: 2/1/11 - 12/24/14
 
SHARE

PRINT THIS DATA

[ ← Previous Day ]
WEATHER ALMANAC - JULY 2, 2014
[ Next Day → ]
[ °C ]   °F
Weather ElementAverageHighLow
Temperature84.8 °F96.8 °F (2:15 pm) (11:35 am)
Dewpoint67.9 °F73.4 °F (8:35 am) (7:00 pm)
Humidity58.7 %83 % (1:55 am)34 % (4:35 pm)
Barometer29.89 in29.94 in (10:35 pm)29.85 in (5:35 pm)
Wind Speed6.4 mph16.1 mph (1:35 pm)
Wind Gust20.7 mph (1:35 pm)
Weather ElementAverage
Visibility8.6 mi
Wind DirectionSSW (192.2 °)

Weather ElementTotal
Precipitation---
Heating Degree Days16.6 (Base 65)
Averaged from 49 records on July 2, 2014
WEATHER CONDITIONS BREAKOUT
WIND DIRECTION BREAKOUT
WEATHER BY HOUR - JULY 2, 2014
[ °C ]   °F
Local TimeTemperatureDewpointHumidityBarometerVisibilityWind DirectionWind SpeedGust SpeedPrecipitationEventsConditions
12:35 AM77.0 °F69.8 °F78 %29.89 in10.0 miSouth (190°)3.5 mphClear
1:15 AM77.0 °F69.8 °F78 %29.90 in10.0 miSSW (210°)4.6 mphClear
1:35 AM78.8 °F69.8 °F74 %29.90 in10.0 miSSW (210°)5.8 mphClear
1:55 AM75.2 °F69.8 °F83 %29.89 in10.0 miSSW (200°)4.6 mphClear
2:15 AM75.2 °F69.8 °F83 %29.89 in10.0 miSSW (200°)4.6 mphClear
2:35 AM75.2 °F69.8 °F83 %29.88 in10.0 miSouth (190°)5.8 mphClear
2:55 AM75.2 °F69.8 °F83 %29.88 in10.0 miSSW (200°)5.8 mphClear
3:15 AM75.2 °F69.8 °F83 %29.88 in10.0 miSSW (200°)6.9 mphClear
3:35 AM75.2 °F69.8 °F83 %29.88 in10.0 miSSW (200°)5.8 mphClear
3:55 AM75.2 °F69.8 °F83 %29.88 in10.0 miSSW (200°)4.6 mphClear
4:15 AM75.2 °F69.8 °F83 %29.87 in10.0 miSSW (200°)5.8 mphClear
4:35 AM75.2 °F69.8 °F83 %29.88 in10.0 miSSW (200°)5.8 mphClear
8:15 AM80.6 °F71.6 °F74 %29.89 in10.0 miSSW (200°)6.9 mph
8:35 AM82.4 °F73.4 °F74 %29.90 in10.0 miSSW (210°)8.1 mphClear
11:35 AM0.0 °F0.0 °F29.91 inSouth (190°)11.5 mph
11:55 AM91.4 °F71.6 °F52 %29.90 in7.0 miSSW (210°)6.9 mphClear
12:15 PM91.4 °F71.6 °F52 %29.91 in7.0 miSW (220°)8.1 mphClear
12:35 PM93.2 °F69.8 °F46 %29.91 in7.0 miSW (220°)5.8 mph9.2 mphClear
12:55 PM93.2 °F68.0 °F44 %29.91 in7.0 miSSW (210°)6.9 mph16.1 mphClear
1:15 PM93.2 °F68.0 °F44 %29.90 in7.0 miWSW (250°)9.2 mphClear
1:35 PM93.2 °F68.0 °F44 %29.90 in7.0 miSouth (190°)16.1 mph20.7 mphScattered Clouds
1:55 PM95.0 °F68.0 °F41 %29.89 in7.0 miSouth (180°)6.9 mphScattered Clouds
2:15 PM96.8 °F69.8 °F41 %29.89 in7.0 miSW (220°)6.9 mphScattered Clouds
2:35 PM95.0 °F69.8 °F44 %29.88 in7.0 miSSW (200°)11.5 mph16.1 mphScattered Clouds
2:55 PM96.8 °F69.8 °F41 %29.88 in7.0 miSW (220°)10.4 mphScattered Clouds
3:15 PM96.8 °F68.0 °F39 %29.87 in7.0 miSW (220°)9.2 mphScattered Clouds
3:35 PM96.8 °F68.0 °F39 %29.87 in7.0 miSSW (210°)9.2 mph16.1 mphScattered Clouds
3:55 PM96.8 °F66.2 °F37 %29.87 in7.0 miSSW (200°)10.4 mphScattered Clouds
4:15 PM96.8 °F66.2 °F37 %29.86 in7.0 miSW (230°)9.2 mph16.1 mphClear
4:35 PM96.8 °F64.4 °F34 %29.86 in7.0 miSSW (210°)11.5 mphClear
4:55 PM96.8 °F64.4 °F34 %29.86 in7.0 miSW (220°)8.1 mphClear
5:15 PM96.8 °F64.4 °F34 %29.86 in7.0 miSSW (210°)6.9 mphClear
5:35 PM96.8 °F68.0 °F39 %29.85 in7.0 miSSW (200°)10.4 mphScattered Clouds
6:55 PM93.2 °F71.6 °F49 %29.85 in10.0 miSouth (180°)10.4 mphClear
7:15 PM91.4 °F71.6 °F52 %29.87 in7.0 miSSW (200°)8.1 mphClear
7:35 PM91.4 °F71.6 °F52 %29.87 in7.0 miSSW (200°)6.9 mphClear
7:55 PM89.6 °F71.6 °F55 %29.87 in7.0 miSSW (210°)5.8 mphClear
8:15 PM87.8 °F71.6 °F58 %29.87 in7.0 miSouth (190°)4.6 mphClear
8:35 PM86.0 °F71.6 °F62 %29.87 in7.0 miSouth (190°)3.5 mphClear
8:55 PM86.0 °F71.6 °F62 %29.88 in10.0 miCalmScattered Clouds
9:15 PM86.0 °F71.6 °F62 %29.89 in10.0 miSSW (200°)5.8 mphMostly Cloudy
9:35 PM84.2 °F71.6 °F66 %29.89 in10.0 miSSW (200°)4.6 mphScattered Clouds
9:55 PM84.2 °F71.6 °F66 %29.90 in10.0 miNorth (360°)3.5 mphThunderstormMostly Cloudy
10:15 PM84.2 °F69.8 °F62 %29.92 in10.0 miNorth (350°)3.5 mphThunderstormThunderstorm
10:35 PM84.2 °F68.0 °F58 %29.94 in10.0 miNW (320°)3.5 mphMostly Cloudy
10:55 PM82.4 °F66.2 °F58 %29.94 in10.0 miCalmMostly Cloudy
11:15 PM80.6 °F66.2 °F61 %29.93 in10.0 miCalmScattered Clouds
11:35 PM80.6 °F66.2 °F61 %29.93 in10.0 miCalmMostly Cloudy
11:55 PM78.8 °F66.2 °F65 %29.94 in10.0 miCalmMostly Cloudy
Hourly data recorded from KFVX, located miles away from Columbia, Virginia







STORIES FROM OUR PARTNERS